Regional Weather Roundup
Issued by NWS

Home | Current Version | Previous Version | Text Only | Print | Product List | Glossary On
Versions: 1 2 3 4 5 6 7 8 9 10 11 12 13 14 15 16 17 18 19 20 21 22 23 24 25 26 27 28 29 30 31 32 33 34 35 36 37 38 39 40 41 42 43 44 45 46 47 48 49 50
000
ASUS43 KLSX 240807
RWRMO

WEATHER SUMMARY FOR MISSOURI
NATIONAL WEATHER SERVICE SPRINGFIELD MO
200 AM CST FRI NOV 24 2017

NOTE: "FAIR" INDICATES FEW OR NO CLOUDS BELOW 12,000 FEET WITH NO
       SIGNIFICANT WEATHER AND/OR OBSTRUCTIONS TO VISIBILITY.
       CURRENT SKY AND/OR WEATHER CONDITIONS ARE NOT AVAILABLE FOR
       CHILLICOTHE AND FARMINGTON.

MOZ001>031-035>038-043-044-053-054-240900-
...NORTHERN AND WESTERN MISSOURI...

CITY           SKY/WX    TMP DP  RH WIND       PRES   REMARKS
KANSAS CTY INT MOCLDY    53  34  48 S13       29.81F
KANSAS C DTWN  PTCLDY    54  34  46 S8        29.82F
LEE`S SUMMIT   PTCLDY    51  34  52 SW12      29.84F
ST JOSEPH      MOCLDY    49  36  61 S8        29.79F
CHILLICOTHE      N/A     50  36  58 S7        29.82F
KIRKSVILLE     PTCLDY    44  35  70 S8        29.83F

$$
MOZ066>068-077>081-088>096-101>105-240900-
...SOUTHWEST MISSOURI...

CITY           SKY/WX    TMP DP  RH WIND       PRES   REMARKS
SPRINGFIELD    CLOUDY    39  31  72 S6        29.93F
JOPLIN         CLOUDY    51  31  46 S13       29.93F
BRANSON        CLEAR     50  27  40 CALM      29.96S

$$
MOZ032>034-039>042-045>050-055>058-069>072-240900-
...CENTRAL MISSOURI...

CITY           SKY/WX    TMP DP  RH WIND       PRES   REMARKS
COLUMBIA       CLOUDY    40  32  73 S7        29.89F
JEFFERSON CITY CLOUDY    34  30  85 SE6       29.91F WCI  29
ROLLA          CLEAR     39  31  72 SW8       29.92S
SEDALIA        MOCLDY    51  34  52 SW12      29.88F
WHITEMAN AFB   PTCLDY    44  34  68 S9        29.83F
WARRENSBURG    PTCLDY    45  32  61 S7        29.86F
OSAGE BEACH    PTCLDY    36  31  82 SE3       29.92F

$$
MOZ051-052-059>065-240900-
...EAST CENTRAL MISSOURI...

CITY           SKY/WX    TMP DP  RH WIND       PRES   REMARKS
ST LOUIS INTL  PTCLDY    35  30  82 CALM      29.91F
SPIRIT OF STL  PTCLDY    30  28  92 CALM      29.90F
ST CHARLES     CLEAR     31  28  89 NE3       29.90F

$$
MOZ072>076-082>087-097>100-106>115-240900-
...SOUTH CENTRAL AND SOUTHEAST MISSOURI...

CITY           SKY/WX    TMP DP  RH WIND       PRES   REMARKS
CAPE GIRARDEAU CLOUDY    32  27  81 SE5       29.97F WCI  27
FARMINGTON     CLEAR     34  27  75 CALM      29.95S
POPLAR BLUFF   CLEAR     30  28  92 CALM      29.98F
WEST PLAINS    CLOUDY    41  27  57 CALM      29.96R

$$



USA.gov is the U.S. government's official web portal to all federal, state and local government web resources and services.